SCP
0 0 0 0 -0 0 0 0 0 0 0 0 0 0 0 0 0 0 0 0 0 0 0 0 0 0 0 0 0 0 0 -0 0 -0 0 0 0 0 0 0 0 0 0 0 0 0 0 0 0 0 0 0 0 0
-0 0 0 -0 -0 0 0 0 0 0 0 0 0 0 0 0 0 0 0 0 0 0 0 0 0 0 0 0 0 0 0 0 0 -0 0 0 0 0 0 0 0 0 0 0 0 0 0 0 0 0 0 0 0 0
-0 0 -0 -0 0 0 0 0 0 0 0 0 0 0 0 0 0 0 0 0 0 0 0 0 0 0 0 0 0 0 0 0 0 0 0 0 0 0 0 0 0 0 0 0 0 0 0 0 0 0 0 0 0 0
0 -0 0 -0 0 0 0 0 0 0 -0 0 0 0 0 0 0 0 0 0 0 0 0 0 0 0 0 0 0 0 0 0 0 0 0 0 0 0 0 -0 -0 -0 -0 0 0 0 0 0 0 0 0 0 0 0
-0 -0 -0 0 0 0 0 0 0 -0 0 0 0 0 0 0 0 0 0 0 0 0 0 0 0 0 0 0 0 0 0 0 0 0 0 0 0 0 0 0 -0 0 0 0 0 0 0 0 0 0 0 0 0 0
-0 -0 -0 0 0 0 0 0 0 0 0 0 0 0 0 0 0 0 0 0 0 0 0 0 0 0 0 0 0 0 0 0 0 0 0 0 0 0 0 0 0 0 0 0 -0 -0 0 0 0 0 0 0 0 0
-0 -0 -0 0 0 0 0 0 0 0 0 -0 0 0 0 0 0 0 0 0 0 0 0 0 0 0 0 0 0 0 0 0 0 0 0 0 0 0 0 0 0 0 0 0 0 -0 -0 -0 -0 0 0 -0 0 -0
-0 -0 -0 -0 -0 -0 -0 0 0 0 0 0 -0 -0 -0 0 0 0 0 0 0 0 0 0 0 0 0 0 0 0 0 0 0 0 0 0 0 0 0 -0 -0 0 0 0 0 0 0 0 0 0 -0 -0 -0 0
-0 -0 -0 -0 0 0 0 0 0 0 0 0 0 -0 0 0 0 0 0 0 0 0 0 0 0 0 0 0 0 0 0 0 0 0 0 0 0 0 0 0 -0 -0 -0 0 0 0 0 0 0 0 0 -0 -0 0
-0 -0 -0 -0 0 0 0 0 0 0 0 0 0 0 0 0 -0 0 0 0 0 0 0 0 0 0 0 0 0 0 0 0 0 0 0 0 0 0 0 0 0 -0 0 0 -0 -0 -0 0 0 0 0 0 0 0
-0 -0 -0 -0 0 0 0 0 0 0 0 0 0 0 0 0 0 0 0 0 0 0 0 0 0 0 0 0 0 0 0 0 0 0 0 0 0 0 0 0 0 0 0 0 -0 -0 -0 -0 -0 0 0 0 0 0
-0 -0 -0 -0 0 0 0 0 0 0 0 0 0 0 0 0 0 0 0 0 0 0 0 0 0 0 0 0 0 0 0 0 0 0 0 0 0 -0 -0 -0 0 0 0 0 -0 -0 0 -0 -0 -0 0 0 0 0
-0 -0 -0 -0 0 0 0 0 0 0 0 0 0 0 0 0 0 0 0 0 0 0 0 0 0 0 0 0 0 0 0 0 0 0 0 0 0 0 -0 -0 0 0 0 -0 -0 -0 -0 -0 -0 -0 -0 0 0 0
-0 -0 -0 -0 0 0 0 0 0 0 0 0 0 0 0 0 0 0 0 0 0 0 0 0 0 0 0 0 0 0 0 0 0 0 0 0 0 -0 -0 -0 0 0 -0 0 -0 -0 0 -0 -0 -0 0 0 0 0
-0 -0 -0 0 0 0 0 0 0 0 0 0 0 0 0 0 0 0 -0 0 0 0 0 0 0 0 0 0 0 0 0 0 0 0 0 0 0 0 -0 -0 0 0 0 0 0 -0 -0 0 0 -0 0 0 -0 -0
-0 -0 0 -0 -0 -0 0 0 0 0 0 0 0 0 0 0 0 0 0 0 0 0 0 0 0 0 0 0 0 0 0 0 0 0 0 0 0 0 0 0 0 0 -0 -0 0 -0 -0 -0 -0 -0 -0 0 0 -0
-0 0 0 -0 -0 -0 0 0 0 0 0 0 0 0 0 0 0 0 0 0 0 0 0 0 0 0 0 0 0 0 0 0 0 0 0 0 0 0 0 0 0 0 0 -0 -0 0 -0 -0 -0 -0 -0 -0 -0 -0
0 0 0 0 -0 0 0 0 0 0 0 0 0 0 0 0 0 0 0 0 0 0 0 0 0 0 0 0 0 0 0 0 0 0 0 0 0 0 0 0 0 0 0 0 0 0 0 -0 -0 -0 -0 -0 -0 -0
-0 -0 -0 -0 0 0 0 0 0 0 0 0 0 0 0 0 0 0 0 0 0 0 0 0 0 0 0 0 0 0 0 0 0 0 0 0 0 0 0 0 0 0 0 0 0 0 0 0 0 -0 -0 -0 -0 -0
-0 -0 -0 0 0 0 0 0 0 0 0 0 0 0 0 0 0 0 0 0 0 0 0 0 0 0 0 0 0 0 0 -0 -0 0 0 0 0 0 0 0 0 0 0 0 0 0 0 0 0 0 0 -0 -0 -0
-0 0 0 0 0 0 0 0 0 0 0 0 0 0 0 0 0 0 0 0 0 0 0 0 0 0 0 0 0 0 0 0 0 0 0 0 0 0 0 0 0 0 0 0 0 0 0 0 0 0 0 0 -0 -0
0 -0 0 0 0 0 0 0 0 0 0 0 0 0 0 0 0 0 0 0 0 0 0 0 0 0 0 0 0 0 0 0 0 0 0 0 0 0 0 0 0 0 0 0 0 0 0 0 -0 0 0 0 0 -0
-0 0 0 0 0 0 0 0 0 0 0 0 0 0 0 0 0 0 0 0 0 0 0 0 0 0 0 0 0 0 0 0 0 0 0 0 0 0 0 0 0 0 0 0 0 0 0 0 0 0 0 0 0 0
0 0 0 0 0 0 0 0 0 0 0 0 0 0 0 0 0 0 0 0 0 0 0 0 0 0 0 0 0 0 0 0 0 0 0 0 0 0 0 0 0 0 0 0 0 0 0 0 0 0 0 0 0 0
0 0 0 0 0 0 0 0 0 0 0 0 0 0 0 0 0 0 0 0 0 0 0 0 0 0 0 0 0 0 0 0 0 0 0 0 0 0 0 0 0 0 0 0 0 0 0 0 0 0 0 0 0 0
0 0 0 0 0 0 0 0 0 0 0 0 0 0 0 0 0 0 0 0 0 0 0 0 0 0 0 0 0 0 0 0 0 0 0 0 0 0 0 0 0 0 0 0 0 0 0 0 0 0 0 0 0 0
0 0 0 0 0 0 0 0 0 0 0 0 0 0 0 0 -0 0 0 0 0 0 0 0 0 0 0 0 0 0 0 0 0 0 0 0 0 0 0 0 0 0 0 0 0 0 0 0 0 0 0 0 0 0
0 0 0 0 0 0 0 0 0 0 0 0 0 0 0 -0 0 0 0 0 0 0 0 0 0 0 0 0 0 0 0 0 0 0 0 0 0 0 0 0 0 0 0 0 0 0 0 0 0 0 0 0 0 0
0 0 0 0 0 0 0 0 0 0 0 0 0 0 0 -0 0 0 0 0 -0 0 0 0 0 0 0 0 0 0 0 0 0 0 0 0 0 0 0 0 0 0 0 0 0 0 0 0 0 0 0 0 0 0
0 -0 0 0 0 0 0 0 0 0 0 0 0 0 -0 -0 -0 0 0 0 0 0 0 0 0 0 0 0 0 0 0 0 0 0 0 0 0 0 0 0 0 0 0 0 0 0 0 0 0 0 0 0 0 0
0 0 0 0 0 0 0 0 0 0 0 0 0 0 0 0 0 0 0 0 0 0 0 0 0 0 0 0 0 0 0 0 0 0 0 0 0 0 0 0 0 0 0 0 0 0 0 0 0 0 0 0 0 0
0 0 0 0 0 0 0 0 0 0 0 0 0 -0 0 0 0 0 0 0 0 0 0 0 0 0 0 0 0 0 0 0 0 0 0 0 0 0 0 0 0 0 0 0 0 0 -0 -0 0 0 0 0 0 0
0 0 0 0 0 0 0 0 0 0 0 0 0 0 0 0 0 0 0 0 0 0 0 0 0 0 0 0 0 0 0 0 0 0 0 0 0 0 0 0 0 0 0 0 0 0 0 0 0 0 0 -0 -0 -0
Wind_Speed_500mb
31 35 46 53 58 60 58 54 49 45 45 47 47 47 40 21 12 11 14 13 18 9 26 20 27 17 13 5 5 19 11 16 11 12 8 8 7 7 8 8 3 3 5 9 13 11 10 54 30 21 17 41 43 52
34 43 52 59 58 56 54 49 45 45 49 50 50 44 26 11 5 3 4 9 12 20 17 25 24 24 17 15 12 13 3 12 12 6 5 7 4 9 13 7 10 8 5 3 5 4 8 13 24 28 38 38 49 58
35 46 58 60 58 54 49 45 46 51 50 49 42 22 14 10 4 10 3 12 16 6 12 17 31 15 13 7 1 6 5 14 12 16 8 5 9 8 7 6 11 14 37 5 13 10 12 29 30 28 43 53 58 56
39 51 60 59 54 49 43 44 51 51 49 39 18 18 14 14 22 22 9 12 16 6 6 11 29 35 25 15 7 16 14 11 17 16 10 5 5 16 7 6 2 16 9 22 11 5 33 16 17 38 79 77 73 54
38 56 60 54 49 42 40 49 51 51 43 18 16 15 17 19 18 13 4 7 10 6 2 14 17 31 23 25 12 10 12 12 8 8 6 6 8 10 8 6 7 33 13 7 7 34 38 55 70 60 69 83 77 64
51 58 56 48 42 36 42 49 51 47 28 10 17 14 15 17 11 10 3 7 14 1 3 7 23 26 21 22 32 41 20 16 13 8 7 7 10 18 6 5 28 68 52 51 13 41 47 61 60 56 54 53 59 52
55 54 48 41 35 33 41 47 48 37 19 6 15 12 13 12 10 6 7 14 4 7 3 2 2 16 25 23 20 24 30 25 18 8 9 7 13 12 3 6 39 65 57 58 59 66 33 27 41 53 54 56 47 47
53 47 41 35 29 34 40 42 39 26 16 5 8 15 10 7 5 6 13 18 5 8 3 3 5 7 5 9 12 21 16 18 25 15 15 11 10 12 8 45 50 64 57 69 78 76 70 62 56 63 52 41 46 46
48 41 36 26 24 34 41 40 31 15 14 11 3 5 6 5 6 14 20 14 4 1 3 4 2 6 5 1 2 8 8 6 8 5 7 11 5 9 11 34 56 59 56 65 71 94 85 47 35 32 36 36 26 39
42 38 30 17 21 30 37 37 24 14 18 13 8 5 5 7 17 14 4 3 3 5 6 10 9 4 12 9 6 8 3 1 1 4 9 5 4 33 49 39 42 51 65 68 69 95 88 77 61 41 30 26 19 19
38 35 21 13 16 26 35 29 25 18 13 9 9 6 16 17 7 3 3 5 5 6 11 11 24 5 14 6 5 12 4 5 5 2 4 6 7 35 49 53 56 50 51 63 63 66 74 82 72 62 58 37 20 15
34 29 18 14 16 25 31 26 20 18 13 12 15 17 13 7 4 3 6 12 2 6 5 9 8 9 13 13 5 10 5 3 5 5 6 6 6 47 47 49 58 54 36 52 51 60 69 69 64 76 75 73 68 51
30 27 19 16 21 26 27 20 17 20 21 13 5 5 5 2 10 7 8 10 9 14 31 33 9 7 8 12 5 4 8 4 9 7 4 6 31 41 44 45 51 51 42 40 48 47 46 55 71 65 71 77 85 78
29 25 13 20 24 23 22 11 14 24 10 5 6 10 5 5 5 2 6 6 33 42 57 52 6 7 2 5 5 8 5 10 6 6 4 5 27 33 39 43 45 49 43 27 37 43 48 53 58 55 64 66 66 71
25 19 14 27 25 15 3 4 14 23 7 6 3 3 6 11 22 25 33 40 49 55 58 19 5 11 9 8 6 8 8 5 4 7 6 7 19 26 34 39 44 43 44 26 21 32 40 40 47 51 55 63 58 57
24 19 18 26 21 8 3 8 11 12 8 7 6 6 7 14 15 21 28 39 43 44 24 11 8 6 6 6 7 5 6 3 6 6 4 6 15 18 25 34 39 35 33 24 18 17 24 32 40 40 44 47 46 48
25 18 24 23 25 6 8 15 9 6 6 4 6 2 18 9 5 11 17 27 33 30 6 8 8 4 4 6 5 5 4 5 11 25 5 12 15 13 20 28 34 34 29 19 25 15 17 24 28 29 33 41 49 52
21 19 23 22 21 6 12 9 6 7 11 14 4 9 8 7 8 7 10 17 26 20 18 3 7 11 5 4 1 2 4 14 14 24 15 6 16 17 17 24 29 24 22 27 16 24 24 26 26 26 31 26 18 30
22 18 14 14 17 12 4 5 6 7 5 4 14 6 12 2 6 9 8 8 20 20 8 8 8 3 2 3 5 2 9 13 9 20 8 20 21 23 14 15 22 17 12 19 19 20 28 19 19 23 25 23 23 27
22 13 11 12 12 7 6 5 6 7 7 9 5 8 10 9 8 14 10 10 10 9 8 4 6 12 10 5 5 9 9 8 3 7 16 15 18 24 16 16 17 20 14 15 18 18 26 30 24 15 21 22 20 28
13 9 10 8 5 6 6 6 5 3 8 7 14 20 17 17 16 13 18 14 6 5 7 9 12 9 11 11 7 4 5 9 11 19 31 11 14 20 20 15 8 18 24 12 18 19 21 20 24 26 18 15 20 31
11 7 6 4 5 3 8 7 9 11 9 15 24 15 11 11 18 14 10 9 12 8 13 18 17 13 18 24 22 15 2 4 12 27 4 2 12 14 17 16 6 21 13 24 15 17 14 16 20 17 30 15 18 26
7 7 2 3 7 6 10 11 7 8 7 8 10 7 8 5 3 9 9 4 5 15 17 16 9 12 17 14 20 23 12 4 15 5 4 7 13 15 17 22 16 23 22 16 12 17 16 15 18 16 19 25 28 29
10 3 3 5 6 7 8 8 10 12 10 6 2 7 7 11 16 9 6 12 6 14 18 16 7 4 7 8 19 11 18 10 6 3 5 5 9 18 17 16 13 18 19 20 21 19 21 18 17 20 28 28 29 31
6 5 4 8 9 6 6 3 11 12 8 7 7 8 4 10 6 3 6 12 15 25 15 8 15 9 9 14 30 30 24 8 7 1 5 5 0 5 9 7 12 5 12 10 15 21 28 23 27 30 26 25 23 23
2 8 13 8 4 8 13 8 7 6 4 7 8 11 17 12 10 2 7 10 24 25 8 7 10 16 7 12 22 25 14 5 2 3 4 11 12 7 4 4 14 13 11 12 16 19 20 22 16 13 23 17 12 12
4 10 14 12 10 22 6 13 22 8 7 7 5 6 9 7 6 9 21 19 16 24 14 13 20 10 9 19 18 11 8 9 2 2 15 15 8 3 2 2 5 4 2 5 2 7 15 16 15 15 14 13 15 12
14 11 6 4 12 7 8 7 6 7 2 9 16 11 5 6 5 8 10 30 14 6 9 13 23 11 13 9 17 10 12 14 13 18 24 12 10 12 9 10 7 5 9 6 3 5 3 8 15 15 16 17 18 13
12 16 18 12 13 14 12 16 10 8 6 11 9 7 9 6 3 14 22 19 11 10 16 13 6 7 25 13 15 27 21 23 21 20 26 18 9 10 5 9 5 4 4 9 9 2 6 11 5 9 12 11 12 6
25 35 19 13 11 14 18 23 13 22 13 18 18 33 23 17 8 21 34 23 12 27 25 31 31 30 25 22 23 22 19 13 11 15 19 19 18 17 9 6 10 10 15 10 13 7 7 6 13 16 13 11 12 13
37 37 10 18 6 7 9 15 27 18 28 30 39 40 38 21 27 27 26 16 15 17 17 23 24 20 21 18 14 16 24 23 17 14 8 7 10 6 5 10 6 4 10 7 8 8 7 10 16 12 8 14 12 9
9 15 10 5 11 10 5 15 27 22 18 23 26 16 16 12 8 8 12 9 12 17 18 16 15 20 19 18 12 15 19 21 29 32 23 12 23 21 19 16 10 6 4 5 5 5 12 11 9 10 9 12 18 19
6 6 11 9 6 5 9 10 9 12 10 9 11 23 19 12 9 9 18 14 16 13 13 17 21 19 19 19 18 18 19 22 26 29 26 18 13 13 8 7 10 12 11 13 13 14 13 12 10 9 12 13 10 9
Wind_Direction_500mb
328 340 338 338 337 333 333 334 335 337 340 338 334 331 331 329 324 295 318 327 299 265 299 310 310 269 279 234 312 317 353 4 355 21 345 337 351 360 49 20 4 29 14 2 336 51 30 350 348 61 334 8 17 26
339 346 335 335 335 335 334 336 338 341 343 337 334 334 338 338 287 241 317 334 340 267 288 330 344 9 333 323 291 326 353 3 17 12 334 295 314 9 3 59 359 48 88 297 21 159 237 6 315 301 11 9 0 4
345 339 336 335 334 335 335 341 342 344 342 336 340 355 15 20 123 136 33 2 5 333 326 355 4 29 17 56 247 308 326 3 355 348 260 291 43 348 5 34 9 24 11 41 317 167 329 309 299 303 350 345 340 355
347 334 332 333 333 338 341 343 347 345 342 344 12 13 43 96 102 90 62 31 20 1 26 329 355 9 12 3 303 271 294 347 335 352 9 5 28 16 356 313 317 17 330 321 264 300 339 292 286 295 314 312 313 323
334 332 335 332 336 341 342 345 351 347 349 10 35 49 90 101 97 89 70 344 1 43 283 319 8 28 35 29 35 11 335 2 23 31 23 30 3 356 339 336 7 349 330 330 266 293 276 268 291 300 303 302 300 309
332 333 331 333 339 342 344 349 353 353 0 44 43 78 92 84 85 64 329 319 353 18 65 18 355 1 18 23 38 46 70 74 74 53 42 42 4 356 24 25 340 342 352 7 277 313 279 281 297 305 300 300 298 297
330 331 332 337 339 343 346 351 352 360 10 57 40 99 94 82 59 42 355 320 52 96 73 52 23 33 19 15 16 22 31 38 46 70 55 5 2 17 13 336 315 345 348 356 359 356 343 308 284 290 287 303 302 290
331 333 336 339 342 341 348 349 352 2 11 54 47 75 80 63 33 6 356 10 96 91 86 28 328 293 296 349 4 9 8 23 29 18 16 22 6 21 41 353 351 360 360 358 354 347 331 317 303 297 302 290 279 263
331 336 339 344 344 344 349 353 354 5 359 352 298 302 291 329 327 328 323 330 329 154 122 131 174 292 253 185 29 17 18 39 16 56 17 2 338 33 327 1 360 3 4 353 355 359 1 9 354 340 327 314 262 259
336 341 344 350 348 353 353 358 7 357 344 338 320 303 299 293 312 311 312 253 292 203 218 226 217 237 196 173 182 144 183 165 50 68 127 68 13 9 9 1 358 12 19 15 8 7 10 27 23 8 345 341 302 270
342 343 347 348 352 358 353 352 359 357 359 7 355 316 313 318 312 301 284 223 166 247 216 238 209 252 218 157 191 191 164 160 64 257 85 12 15 353 3 9 12 13 25 30 28 21 20 30 29 32 40 38 0 344
344 344 346 342 342 343 340 337 347 349 326 324 316 294 295 295 297 317 292 323 325 244 254 202 276 243 174 198 146 177 188 84 57 107 66 6 297 348 3 3 11 18 25 36 38 35 36 34 34 37 42 44 44 48
343 345 341 336 335 336 334 321 321 332 325 289 271 242 247 277 25 48 338 316 334 318 317 329 291 341 173 197 196 148 68 44 99 45 18 252 316 345 0 7 10 24 23 27 41 45 38 41 36 39 41 44 50 54
343 348 360 355 340 329 327 302 318 336 326 261 222 333 142 327 15 257 221 245 340 329 323 316 226 191 263 100 67 66 78 52 66 29 275 257 336 352 4 8 5 12 24 24 37 42 49 49 44 43 44 46 48 46
341 344 346 357 352 340 319 317 335 340 310 286 260 10 45 41 31 27 15 355 352 348 341 336 68 76 26 53 46 48 44 22 121 224 234 304 341 353 357 4 2 2 16 35 30 46 47 49 56 51 42 44 49 50
334 331 337 354 0 331 194 299 323 329 316 302 358 60 87 50 4 27 16 1 2 357 13 44 52 62 50 84 57 44 89 220 279 245 269 330 355 350 349 3 0 356 12 34 18 38 46 54 52 54 53 46 43 43
328 324 329 338 350 271 263 294 281 263 261 294 289 346 119 95 55 32 12 8 4 8 339 63 47 327 94 69 36 62 149 224 1 10 303 29 1 357 6 2 359 0 11 36 40 44 51 52 51 59 54 50 49 49
328 323 321 326 340 291 262 273 263 256 209 234 169 138 160 150 142 81 41 20 21 9 13 76 72 37 56 82 338 274 71 356 349 8 46 22 352 9 360 2 6 12 31 59 60 59 45 48 56 75 63 51 44 50
336 328 315 321 338 336 282 242 258 278 263 185 140 23 20 315 206 150 83 69 27 35 54 43 59 71 257 185 148 62 328 354 352 10 27 6 4 356 356 2 11 34 63 51 67 57 49 52 40 31 44 53 60 56
326 328 336 328 328 332 300 258 273 298 358 354 256 324 319 268 245 202 166 135 72 58 53 70 179 180 178 193 242 289 325 359 27 9 358 6 6 12 15 20 41 45 98 91 45 34 54 55 52 57 39 36 50 41
333 331 343 353 315 282 275 303 284 270 296 275 288 295 282 267 191 194 191 167 121 130 166 191 189 224 241 252 231 182 342 308 305 314 322 321 6 18 19 22 49 60 55 109 72 53 39 45 43 49 52 69 71 46
344 354 342 341 293 295 261 218 260 266 249 256 277 271 266 242 198 199 196 193 166 193 202 202 210 222 225 233 238 229 9 289 331 335 241 5 22 21 359 11 85 64 59 53 99 82 57 31 22 16 46 99 100 58
340 338 321 280 261 263 262 262 259 238 203 238 193 204 237 235 23 21 336 6 187 205 215 208 234 270 286 250 225 229 242 324 328 91 133 53 33 23 36 100 63 57 69 63 37 58 71 65 39 26 37 87 92 65
330 314 274 284 246 257 269 247 252 297 300 308 273 255 214 145 91 77 6 23 354 239 220 218 198 352 34 235 206 218 209 171 266 266 38 6 47 53 76 89 78 59 61 50 62 71 60 105 78 50 76 104 71 75
306 222 245 263 239 252 260 53 2 323 334 300 292 269 215 116 75 84 179 259 235 208 207 113 55 54 347 168 166 168 179 211 193 61 65 123 340 75 69 64 51 25 19 41 67 73 68 99 82 85 83 97 109 101
116 221 196 236 233 68 34 350 292 281 294 276 266 343 21 44 42 284 249 291 238 256 220 197 227 338 159 175 194 187 176 96 64 234 162 191 201 171 153 89 38 68 64 71 78 82 66 75 84 87 93 95 75 66
271 264 238 236 96 123 163 265 244 234 258 252 306 27 112 151 267 263 286 320 334 319 216 289 350 24 178 149 134 115 311 241 128 9 175 155 111 104 181 22 52 137 317 304 59 61 74 74 83 96 95 92 99 85
240 270 240 334 125 159 194 190 233 239 257 71 8 352 95 223 251 270 291 358 7 20 282 33 53 46 124 81 333 292 153 134 92 119 134 89 84 100 113 98 51 344 260 272 335 14 50 81 96 78 72 79 94 94
236 238 266 282 159 218 227 200 219 214 246 196 129 132 153 228 320 291 348 7 42 14 19 6 60 63 117 104 89 110 113 130 117 112 119 121 119 106 64 129 103 47 71 107 65 38 56 54 112 102 93 56 39 60
258 259 245 250 189 238 240 201 190 165 106 106 124 140 155 171 98 46 31 36 61 98 89 100 93 97 103 84 90 87 82 66 53 70 116 106 98 103 105 55 119 105 96 77 355 49 69 40 82 103 79 58 37 86
269 276 233 236 264 314 237 205 159 129 119 112 144 138 137 120 81 59 58 69 73 79 59 69 72 67 71 75 66 68 83 85 69 58 86 104 92 88 91 107 109 96 84 77 82 85 83 63 86 90 82 65 44 42
231 190 193 238 281 235 230 162 166 112 116 118 129 150 130 124 100 63 58 46 48 63 69 57 44 72 62 74 91 87 84 78 47 37 33 68 115 103 98 88 86 104 83 32 65 61 78 76 104 82 64 84 57 55
300 243 272 251 226 247 185 186 140 105 118 127 123 138 129 111 85 96 85 78 73 74 105 111 109 96 73 64 67 60 53 42 46 50 64 85 95 72 83 60 53 45 67 102 94 80 86 81 76 76 75 67 53 48
Wind_Speed_850mb
31 35 46 53 58 60 58 54 49 45 45 47 47 47 40 21 12 11 14 13 18 9 26 20 27 17 13 5 5 19 11 16 11 12 8 8 7 7 8 8 3 3 5 9 13 11 10 54 30 21 17 41 43 52
34 43 52 59 58 56 54 49 45 45 49 50 50 44 26 11 5 3 4 9 12 20 17 25 24 24 17 15 12 13 3 12 12 6 5 7 4 9 13 7 10 8 5 3 5 4 8 13 24 28 38 38 49 58
35 46 58 60 58 54 49 45 46 51 50 49 42 22 14 10 4 10 3 12 16 6 12 17 31 15 13 7 1 6 5 14 12 16 8 5 9 8 7 6 11 14 37 5 13 10 12 29 30 28 43 53 58 56
39 51 60 59 54 49 43 44 51 51 49 39 18 18 14 14 22 22 9 12 16 6 6 11 29 35 25 15 7 16 14 11 17 16 10 5 5 16 7 6 2 16 9 22 11 5 33 16 17 38 79 77 73 54
38 56 60 54 49 42 40 49 51 51 43 18 16 15 17 19 18 13 4 7 10 6 2 14 17 31 23 25 12 10 12 12 8 8 6 6 8 10 8 6 7 33 13 7 7 34 38 55 70 60 69 83 77 64
51 58 56 48 42 36 42 49 51 47 28 10 17 14 15 17 11 10 3 7 14 1 3 7 23 26 21 22 32 41 20 16 13 8 7 7 10 18 6 5 28 68 52 51 13 41 47 61 60 56 54 53 59 52
55 54 48 41 35 33 41 47 48 37 19 6 15 12 13 12 10 6 7 14 4 7 3 2 2 16 25 23 20 24 30 25 18 8 9 7 13 12 3 6 39 65 57 58 59 66 33 27 41 53 54 56 47 47
53 47 41 35 29 34 40 42 39 26 16 5 8 15 10 7 5 6 13 18 5 8 3 3 5 7 5 9 12 21 16 18 25 15 15 11 10 12 8 45 50 64 57 69 78 76 70 62 56 63 52 41 46 46
48 41 36 26 24 34 41 40 31 15 14 11 3 5 6 5 6 14 20 14 4 1 3 4 2 6 5 1 2 8 8 6 8 5 7 11 5 9 11 34 56 59 56 65 71 94 85 47 35 32 36 36 26 39
42 38 30 17 21 30 37 37 24 14 18 13 8 5 5 7 17 14 4 3 3 5 6 10 9 4 12 9 6 8 3 1 1 4 9 5 4 33 49 39 42 51 65 68 69 95 88 77 61 41 30 26 19 19
38 35 21 13 16 26 35 29 25 18 13 9 9 6 16 17 7 3 3 5 5 6 11 11 24 5 14 6 5 12 4 5 5 2 4 6 7 35 49 53 56 50 51 63 63 66 74 82 72 62 58 37 20 15
34 29 18 14 16 25 31 26 20 18 13 12 15 17 13 7 4 3 6 12 2 6 5 9 8 9 13 13 5 10 5 3 5 5 6 6 6 47 47 49 58 54 36 52 51 60 69 69 64 76 75 73 68 51
30 27 19 16 21 26 27 20 17 20 21 13 5 5 5 2 10 7 8 10 9 14 31 33 9 7 8 12 5 4 8 4 9 7 4 6 31 41 44 45 51 51 42 40 48 47 46 55 71 65 71 77 85 78
29 25 13 20 24 23 22 11 14 24 10 5 6 10 5 5 5 2 6 6 33 42 57 52 6 7 2 5 5 8 5 10 6 6 4 5 27 33 39 43 45 49 43 27 37 43 48 53 58 55 64 66 66 71
25 19 14 27 25 15 3 4 14 23 7 6 3 3 6 11 22 25 33 40 49 55 58 19 5 11 9 8 6 8 8 5 4 7 6 7 19 26 34 39 44 43 44 26 21 32 40 40 47 51 55 63 58 57
24 19 18 26 21 8 3 8 11 12 8 7 6 6 7 14 15 21 28 39 43 44 24 11 8 6 6 6 7 5 6 3 6 6 4 6 15 18 25 34 39 35 33 24 18 17 24 32 40 40 44 47 46 48
25 18 24 23 25 6 8 15 9 6 6 4 6 2 18 9 5 11 17 27 33 30 6 8 8 4 4 6 5 5 4 5 11 25 5 12 15 13 20 28 34 34 29 19 25 15 17 24 28 29 33 41 49 52
21 19 23 22 21 6 12 9 6 7 11 14 4 9 8 7 8 7 10 17 26 20 18 3 7 11 5 4 1 2 4 14 14 24 15 6 16 17 17 24 29 24 22 27 16 24 24 26 26 26 31 26 18 30
22 18 14 14 17 12 4 5 6 7 5 4 14 6 12 2 6 9 8 8 20 20 8 8 8 3 2 3 5 2 9 13 9 20 8 20 21 23 14 15 22 17 12 19 19 20 28 19 19 23 25 23 23 27
22 13 11 12 12 7 6 5 6 7 7 9 5 8 10 9 8 14 10 10 10 9 8 4 6 12 10 5 5 9 9 8 3 7 16 15 18 24 16 16 17 20 14 15 18 18 26 30 24 15 21 22 20 28
13 9 10 8 5 6 6 6 5 3 8 7 14 20 17 17 16 13 18 14 6 5 7 9 12 9 11 11 7 4 5 9 11 19 31 11 14 20 20 15 8 18 24 12 18 19 21 20 24 26 18 15 20 31
11 7 6 4 5 3 8 7 9 11 9 15 24 15 11 11 18 14 10 9 12 8 13 18 17 13 18 24 22 15 2 4 12 27 4 2 12 14 17 16 6 21 13 24 15 17 14 16 20 17 30 15 18 26
7 7 2 3 7 6 10 11 7 8 7 8 10 7 8 5 3 9 9 4 5 15 17 16 9 12 17 14 20 23 12 4 15 5 4 7 13 15 17 22 16 23 22 16 12 17 16 15 18 16 19 25 28 29
10 3 3 5 6 7 8 8 10 12 10 6 2 7 7 11 16 9 6 12 6 14 18 16 7 4 7 8 19 11 18 10 6 3 5 5 9 18 17 16 13 18 19 20 21 19 21 18 17 20 28 28 29 31
6 5 4 8 9 6 6 3 11 12 8 7 7 8 4 10 6 3 6 12 15 25 15 8 15 9 9 14 30 30 24 8 7 1 5 5 0 5 9 7 12 5 12 10 15 21 28 23 27 30 26 25 23 23
2 8 13 8 4 8 13 8 7 6 4 7 8 11 17 12 10 2 7 10 24 25 8 7 10 16 7 12 22 25 14 5 2 3 4 11 12 7 4 4 14 13 11 12 16 19 20 22 16 13 23 17 12 12
4 10 14 12 10 22 6 13 22 8 7 7 5 6 9 7 6 9 21 19 16 24 14 13 20 10 9 19 18 11 8 9 2 2 15 15 8 3 2 2 5 4 2 5 2 7 15 16 15 15 14 13 15 12
14 11 6 4 12 7 8 7 6 7 2 9 16 11 5 6 5 8 10 30 14 6 9 13 23 11 13 9 17 10 12 14 13 18 24 12 10 12 9 10 7 5 9 6 3 5 3 8 15 15 16 17 18 13
12 16 18 12 13 14 12 16 10 8 6 11 9 7 9 6 3 14 22 19 11 10 16 13 6 7 25 13 15 27 21 23 21 20 26 18 9 10 5 9 5 4 4 9 9 2 6 11 5 9 12 11 12 6
25 35 19 13 11 14 18 23 13 22 13 18 18 33 23 17 8 21 34 23 12 27 25 31 31 30 25 22 23 22 19 13 11 15 19 19 18 17 9 6 10 10 15 10 13 7 7 6 13 16 13 11 12 13
37 37 10 18 6 7 9 15 27 18 28 30 39 40 38 21 27 27 26 16 15 17 17 23 24 20 21 18 14 16 24 23 17 14 8 7 10 6 5 10 6 4 10 7 8 8 7 10 16 12 8 14 12 9
9 15 10 5 11 10 5 15 27 22 18 23 26 16 16 12 8 8 12 9 12 17 18 16 15 20 19 18 12 15 19 21 29 32 23 12 23 21 19 16 10 6 4 5 5 5 12 11 9 10 9 12 18 19
6 6 11 9 6 5 9 10 9 12 10 9 11 23 19 12 9 9 18 14 16 13 13 17 21 19 19 19 18 18 19 22 26 29 26 18 13 13 8 7 10 12 11 13 13 14 13 12 10 9 12 13 10 9
Wind_Direction_850mb
328 340 338 338 337 333 333 334 335 337 340 338 334 331 331 329 324 295 318 327 299 265 299 310 310 269 279 234 312 317 353 4 355 21 345 337 351 360 49 20 4 29 14 2 336 51 30 350 348 61 334 8 17 26
339 346 335 335 335 335 334 336 338 341 343 337 334 334 338 338 287 241 317 334 340 267 288 330 344 9 333 323 291 326 353 3 17 12 334 295 314 9 3 59 359 48 88 297 21 159 237 6 315 301 11 9 0 4
345 339 336 335 334 335 335 341 342 344 342 336 340 355 15 20 123 136 33 2 5 333 326 355 4 29 17 56 247 308 326 3 355 348 260 291 43 348 5 34 9 24 11 41 317 167 329 309 299 303 350 345 340 355
347 334 332 333 333 338 341 343 347 345 342 344 12 13 43 96 102 90 62 31 20 1 26 329 355 9 12 3 303 271 294 347 335 352 9 5 28 16 356 313 317 17 330 321 264 300 339 292 286 295 314 312 313 323
334 332 335 332 336 341 342 345 351 347 349 10 35 49 90 101 97 89 70 344 1 43 283 319 8 28 35 29 35 11 335 2 23 31 23 30 3 356 339 336 7 349 330 330 266 293 276 268 291 300 303 302 300 309
332 333 331 333 339 342 344 349 353 353 0 44 43 78 92 84 85 64 329 319 353 18 65 18 355 1 18 23 38 46 70 74 74 53 42 42 4 356 24 25 340 342 352 7 277 313 279 281 297 305 300 300 298 297
330 331 332 337 339 343 346 351 352 360 10 57 40 99 94 82 59 42 355 320 52 96 73 52 23 33 19 15 16 22 31 38 46 70 55 5 2 17 13 336 315 345 348 356 359 356 343 308 284 290 287 303 302 290
331 333 336 339 342 341 348 349 352 2 11 54 47 75 80 63 33 6 356 10 96 91 86 28 328 293 296 349 4 9 8 23 29 18 16 22 6 21 41 353 351 360 360 358 354 347 331 317 303 297 302 290 279 263
331 336 339 344 344 344 349 353 354 5 359 352 298 302 291 329 327 328 323 330 329 154 122 131 174 292 253 185 29 17 18 39 16 56 17 2 338 33 327 1 360 3 4 353 355 359 1 9 354 340 327 314 262 259
336 341 344 350 348 353 353 358 7 357 344 338 320 303 299 293 312 311 312 253 292 203 218 226 217 237 196 173 182 144 183 165 50 68 127 68 13 9 9 1 358 12 19 15 8 7 10 27 23 8 345 341 302 270
342 343 347 348 352 358 353 352 359 357 359 7 355 316 313 318 312 301 284 223 166 247 216 238 209 252 218 157 191 191 164 160 64 257 85 12 15 353 3 9 12 13 25 30 28 21 20 30 29 32 40 38 0 344
344 344 346 342 342 343 340 337 347 349 326 324 316 294 295 295 297 317 292 323 325 244 254 202 276 243 174 198 146 177 188 84 57 107 66 6 297 348 3 3 11 18 25 36 38 35 36 34 34 37 42 44 44 48
343 345 341 336 335 336 334 321 321 332 325 289 271 242 247 277 25 48 338 316 334 318 317 329 291 341 173 197 196 148 68 44 99 45 18 252 316 345 0 7 10 24 23 27 41 45 38 41 36 39 41 44 50 54
343 348 360 355 340 329 327 302 318 336 326 261 222 333 142 327 15 257 221 245 340 329 323 316 226 191 263 100 67 66 78 52 66 29 275 257 336 352 4 8 5 12 24 24 37 42 49 49 44 43 44 46 48 46
341 344 346 357 352 340 319 317 335 340 310 286 260 10 45 41 31 27 15 355 352 348 341 336 68 76 26 53 46 48 44 22 121 224 234 304 341 353 357 4 2 2 16 35 30 46 47 49 56 51 42 44 49 50
334 331 337 354 0 331 194 299 323 329 316 302 358 60 87 50 4 27 16 1 2 357 13 44 52 62 50 84 57 44 89 220 279 245 269 330 355 350 349 3 0 356 12 34 18 38 46 54 52 54 53 46 43 43
328 324 329 338 350 271 263 294 281 263 261 294 289 346 119 95 55 32 12 8 4 8 339 63 47 327 94 69 36 62 149 224 1 10 303 29 1 357 6 2 359 0 11 36 40 44 51 52 51 59 54 50 49 49
328 323 321 326 340 291 262 273 263 256 209 234 169 138 160 150 142 81 41 20 21 9 13 76 72 37 56 82 338 274 71 356 349 8 46 22 352 9 360 2 6 12 31 59 60 59 45 48 56 75 63 51 44 50
336 328 315 321 338 336 282 242 258 278 263 185 140 23 20 315 206 150 83 69 27 35 54 43 59 71 257 185 148 62 328 354 352 10 27 6 4 356 356 2 11 34 63 51 67 57 49 52 40 31 44 53 60 56
326 328 336 328 328 332 300 258 273 298 358 354 256 324 319 268 245 202 166 135 72 58 53 70 179 180 178 193 242 289 325 359 27 9 358 6 6 12 15 20 41 45 98 91 45 34 54 55 52 57 39 36 50 41
333 331 343 353 315 282 275 303 284 270 296 275 288 295 282 267 191 194 191 167 121 130 166 191 189 224 241 252 231 182 342 308 305 314 322 321 6 18 19 22 49 60 55 109 72 53 39 45 43 49 52 69 71 46
344 354 342 341 293 295 261 218 260 266 249 256 277 271 266 242 198 199 196 193 166 193 202 202 210 222 225 233 238 229 9 289 331 335 241 5 22 21 359 11 85 64 59 53 99 82 57 31 22 16 46 99 100 58
340 338 321 280 261 263 262 262 259 238 203 238 193 204 237 235 23 21 336 6 187 205 215 208 234 270 286 250 225 229 242 324 328 91 133 53 33 23 36 100 63 57 69 63 37 58 71 65 39 26 37 87 92 65
330 314 274 284 246 257 269 247 252 297 300 308 273 255 214 145 91 77 6 23 354 239 220 218 198 352 34 235 206 218 209 171 266 266 38 6 47 53 76 89 78 59 61 50 62 71 60 105 78 50 76 104 71 75
306 222 245 263 239 252 260 53 2 323 334 300 292 269 215 116 75 84 179 259 235 208 207 113 55 54 347 168 166 168 179 211 193 61 65 123 340 75 69 64 51 25 19 41 67 73 68 99 82 85 83 97 109 101
116 221 196 236 233 68 34 350 292 281 294 276 266 343 21 44 42 284 249 291 238 256 220 197 227 338 159 175 194 187 176 96 64 234 162 191 201 171 153 89 38 68 64 71 78 82 66 75 84 87 93 95 75 66
271 264 238 236 96 123 163 265 244 234 258 252 306 27 112 151 267 263 286 320 334 319 216 289 350 24 178 149 134 115 311 241 128 9 175 155 111 104 181 22 52 137 317 304 59 61 74 74 83 96 95 92 99 85
240 270 240 334 125 159 194 190 233 239 257 71 8 352 95 223 251 270 291 358 7 20 282 33 53 46 124 81 333 292 153 134 92 119 134 89 84 100 113 98 51 344 260 272 335 14 50 81 96 78 72 79 94 94
236 238 266 282 159 218 227 200 219 214 246 196 129 132 153 228 320 291 348 7 42 14 19 6 60 63 117 104 89 110 113 130 117 112 119 121 119 106 64 129 103 47 71 107 65 38 56 54 112 102 93 56 39 60
258 259 245 250 189 238 240 201 190 165 106 106 124 140 155 171 98 46 31 36 61 98 89 100 93 97 103 84 90 87 82 66 53 70 116 106 98 103 105 55 119 105 96 77 355 49 69 40 82 103 79 58 37 86
269 276 233 236 264 314 237 205 159 129 119 112 144 138 137 120 81 59 58 69 73 79 59 69 72 67 71 75 66 68 83 85 69 58 86 104 92 88 91 107 109 96 84 77 82 85 83 63 86 90 82 65 44 42
231 190 193 238 281 235 230 162 166 112 116 118 129 150 130 124 100 63 58 46 48 63 69 57 44 72 62 74 91 87 84 78 47 37 33 68 115 103 98 88 86 104 83 32 65 61 78 76 104 82 64 84 57 55
300 243 272 251 226 247 185 186 140 105 118 127 123 138 129 111 85 96 85 78 73 74 105 111 109 96 73 64 67 60 53 42 46 50 64 85 95 72 83 60 53 45 67 102 94 80 86 81 76 76 75 67 53 48